Theta_e
308 299 297 297 299 301 303 304 304 306 306 305 304 302 299 300 301 303 297 298 301 297 295 297 298 299 299 299 301 303 302 299 299 299 299 299 299 300 302 306 307 309 311 314 318 322 322 325 326 326 326 326 326 327 328 328 328 329 328 327 328 330 330 329 329 328 327 326 326 325 326 326 326 327 327 327 328 329 328 329 330 329 329 330 329 328
307 299 298 301 303 304 304 306 306 305 305 304 303 302 299 301 299 302 296 298 298 296 295 297 296 297 299 302 302 301 303 301 299 299 299 299 300 301 301 301 306 308 311 314 315 320 322 323 324 325 324 323 324 326 327 327 328 328 329 328 328 329 330 329 329 329 329 328 327 326 326 327 327 326 326 325 327 329 330 330 331 331 330 331 330 328
299 297 301 304 306 307 306 305 305 304 303 304 302 301 300 299 302 297 296 297 297 297 293 297 296 298 300 302 303 302 301 302 301 301 300 300 300 301 302 302 303 305 309 311 314 317 320 322 323 324 324 325 326 326 326 327 327 328 328 328 328 328 329 329 329 329 329 329 329 328 327 327 326 327 328 328 327 328 329 330 330 331 331 331 331 330
294 298 304 306 307 305 304 305 304 304 304 302 300 297 294 301 298 293 293 296 296 296 295 293 291 293 297 297 298 301 303 303 304 303 302 302 301 301 302 303 304 305 307 310 314 317 319 321 323 323 323 324 324 324 325 326 326 327 327 328 327 327 328 328 328 326 329 330 330 329 329 328 328 326 327 328 328 328 329 329 330 331 332 331 331 332
298 302 307 306 306 304 302 303 302 301 299 302 302 298 298 299 300 297 292 295 295 296 297 293 292 293 296 297 298 300 302 303 304 304 303 302 303 303 304 304 305 306 307 308 313 316 318 320 322 323 324 324 323 324 324 325 326 327 327 328 328 327 327 328 327 326 328 328 328 329 329 328 328 326 326 327 327 329 328 329 329 331 332 332 331 332
300 305 308 305 304 304 303 301 301 301 297 299 301 302 301 302 301 295 295 293 290 289 294 294 285 287 294 296 297 300 300 300 302 303 303 302 302 302 302 303 305 306 307 308 308 314 317 319 321 322 323 323 323 324 324 325 325 326 326 326 327 327 327 327 328 327 327 327 327 327 327 325 325 325 325 325 326 327 327 327 330 331 333 333 332 331
301 306 306 303 303 302 303 301 303 303 298 296 298 303 303 303 305 298 295 295 287 285 291 293 285 284 293 294 297 299 300 300 301 301 303 303 302 302 302 303 304 305 305 305 306 306 313 315 318 320 321 323 323 324 325 325 325 325 325 326 327 327 327 328 328 328 326 327 327 327 327 327 326 325 325 327 327 328 328 328 328 330 332 333 332 331
302 302 304 304 303 301 301 299 304 304 300 296 303 304 303 303 302 299 298 296 293 296 294 292 291 282 285 291 296 298 296 299 300 301 302 303 304 303 303 303 303 304 305 305 304 305 307 312 315 317 320 321 322 324 324 324 325 325 325 326 327 327 326 328 328 328 327 326 326 326 326 326 326 326 325 327 328 329 328 328 328 329 330 331 333 332
302 300 302 301 302 300 299 302 306 306 301 300 302 304 302 302 302 302 298 295 293 288 285 288 292 284 283 291 297 297 294 295 297 300 302 303 303 303 303 304 304 304 305 305 305 304 305 307 312 315 317 320 321 321 323 324 325 325 325 325 327 327 327 328 328 328 328 326 326 326 326 325 325 326 326 325 326 327 327 326 327 328 329 330 330 331
302 303 304 304 301 299 303 305 305 305 300 299 303 304 304 303 302 302 296 294 292 288 284 288 290 284 286 292 293 293 294 295 296 299 301 302 302 302 303 303 305 305 304 305 306 306 305 305 307 311 313 315 318 320 321 322 323 324 325 325 325 326 327 327 328 328 328 327 325 326 325 325 325 324 324 324 324 325 326 325 324 324 327 328 328 329
298 302 307 304 301 303 303 304 305 304 304 303 302 299 298 299 295 294 292 289 287 284 285 291 291 289 282 289 293 293 294 296 297 297 300 302 302 302 302 303 303 304 304 304 304 305 306 306 306 307 306 309 312 316 319 320 322 322 324 324 324 325 327 326 327 328 328 328 327 326 326 325 324 324 324 323 323 323 323 324 324 324 325 327 328 328
299 300 301 302 303 305 305 301 303 306 303 302 297 295 295 293 295 292 288 290 285 284 287 291 292 291 283 286 294 298 296 298 298 297 299 300 301 302 302 303 303 304 303 304 303 302 301 301 302 303 304 304 307 311 314 316 318 320 322 323 323 323 325 326 326 327 328 328 327 327 326 325 325 324 324 323 323 323 323 324 324 324 324 325 326 327
293 296 300 300 301 302 301 298 297 301 301 299 298 296 290 286 286 284 286 282 283 283 286 289 292 287 287 292 295 296 294 296 298 299 299 299 301 302 301 304 303 301 300 301 301 301 300 299 300 299 300 300 302 306 309 311 313 316 318 320 321 322 323 325 325 326 326 326 327 327 326 325 324 324 324 323 323 323 323 323 323 323 323 324 324 325
290 295 297 298 300 302 303 295 291 292 296 298 296 292 289 284 283 283 285 286 284 284 284 284 289 284 289 292 298 298 300 298 298 298 298 299 300 298 298 300 300 299 297 299 300 300 300 300 300 300 300 301 301 301 304 305 307 309 312 314 317 319 321 322 323 324 324 325 326 326 326 325 324 323 323 324 323 323 323 323 323 323 324 324 324 324
285 286 292 296 293 302 301 301 298 295 296 297 300 296 291 288 285 282 285 281 280 280 282 288 283 281 283 288 292 293 296 296 298 299 298 299 299 298 299 300 300 300 299 299 299 301 302 303 303 303 302 301 300 300 301 302 303 304 306 309 312 314 315 318 320 321 323 324 324 325 325 325 324 323 323 324 324 323 323 323 323 323 323 323 324 324
289 289 295 300 300 301 299 303 301 298 296 297 299 299 293 289 293 286 285 283 280 279 278 280 283 286 290 294 296 295 294 294 295 296 296 295 297 298 298 298 298 299 300 301 301 301 301 301 301 302 303 303 303 301 301 301 301 302 304 304 307 309 310 314 316 319 321 322 322 323 323 324 323 321 322 321 322 323 323 323 323 323 323 323 322 323
291 286 295 298 298 300 301 302 300 302 288 294 297 290 294 299 297 288 284 285 283 282 281 283 283 287 293 296 298 298 294 294 294 294 294 294 295 296 296 297 297 299 299 299 302 300 300 300 300 300 301 302 302 302 302 302 301 301 302 303 304 305 307 310 312 315 318 319 319 320 321 321 321 321 320 321 320 321 322 322 323 322 322 322 322 323
288 286 292 295 293 300 299 301 301 303 301 296 290 295 300 300 298 291 286 284 282 280 281 282 282 282 286 283 295 297 295 293 293 294 294 294 294 295 296 297 299 300 300 301 301 300 300 300 300 301 301 301 302 302 302 302 302 302 303 303 303 304 305 307 309 312 314 315 316 316 318 318 319 319 319 319 319 320 320 321 321 321 321 322 323 323
294 284 288 292 296 297 301 301 298 302 300 298 296 303 294 285 287 288 286 281 277 277 280 280 282 283 285 288 291 292 293 294 294 294 293 294 295 295 296 298 299 300 300 298 298 297 298 298 299 299 301 301 300 301 301 301 301 302 302 303 305 303 305 306 308 309 311 312 314 315 315 315 317 318 318 319 319 319 319 319 320 320 321 321 321 321
296 285 285 291 294 295 297 297 288 294 298 300 299 297 300 293 288 286 288 285 282 280 278 278 281 280 289 291 292 294 296 296 296 295 295 295 296 296 297 298 298 299 299 299 299 299 299 299 299 300 300 299 299 298 298 299 299 300 301 302 302 303 304 308 307 308 310 311 310 312 312 312 313 314 316 316 317 319 319 318 318 319 316 317 317 320
292 293 282 286 293 295 288 294 292 294 289 289 292 291 293 290 290 288 289 287 282 279 280 280 279 283 290 296 296 296 297 298 297 296 296 297 297 297 297 298 300 300 299 299 298 298 298 298 299 299 299 299 297 297 298 299 300 300 300 300 301 302 303 304 306 308 308 308 309 309 309 310 311 312 312 313 313 313 314 314 313 315 315 317 316 317
289 289 283 284 286 288 292 297 297 298 296 293 293 291 294 289 283 284 282 289 286 284 280 280 279 284 293 296 298 297 294 295 296 296 297 297 297 297 298 299 298 298 298 298 297 297 296 297 299 299 299 296 297 296 298 299 300 300 300 300 300 300 301 302 302 305 306 306 306 306 306 307 308 309 310 311 311 310 311 311 312 313 312 312 311 313
296 289 286 282 286 289 294 294 295 296 298 297 296 293 295 293 290 285 282 283 285 284 283 281 280 280 293 295 295 297 296 295 296 296 297 297 297 298 300 299 299 298 297 297 296 296 296 296 298 299 299 299 298 298 298 297 298 299 299 300 300 300 300 301 301 302 303 303 304 304 305 306 308 309 308 308 308 308 308 308 309 311 310 309 309 308
294 286 284 285 286 289 292 295 294 295 296 296 295 295 294 292 292 290 287 284 284 282 282 283 281 284 293 295 294 294 293 293 293 294 295 295 295 296 297 298 298 299 299 297 296 296 296 295 295 296 298 299 298 298 299 299 298 299 299 300 299 299 299 301 302 302 301 301 301 302 301 301 303 306 307 308 308 308 308 309 309 308 309 310 308 308
291 288 287 282 282 283 284 288 291 292 292 290 292 294 295 295 294 290 285 285 282 283 283 282 280 283 293 293 292 291 293 292 293 293 293 295 296 296 296 298 298 298 298 297 297 297 296 295 295 297 297 298 298 297 298 300 300 299 299 297 298 298 299 300 300 300 300 299 298 298 298 297 298 299 301 303 304 304 304 304 304 304 305 304 305 306
292 289 287 281 277 276 275 277 281 284 287 289 291 293 294 294 293 289 286 283 282 283 285 282 284 289 292 291 292 293 293 294 293 293 294 295 297 299 298 298 297 298 298 298 298 297 296 297 295 294 295 298 299 300 299 299 299 298 297 299 297 296 298 301 299 297 297 298 299 300 300 300 300 301 301 302 302 301 302 302 302 302 301 302 304 302
289 291 290 288 285 283 285 287 291 292 288 283 287 291 292 293 293 292 288 285 284 286 283 286 288 288 290 290 290 291 291 292 292 292 293 293 294 297 296 297 298 298 298 297 298 298 297 297 297 297 297 298 297 297 298 298 299 297 297 296 296 296 300 302 298 297 299 300 300 300 299 300 301 301 301 301 301 300 300 299 298 299 299 298 299 299
288 287 290 291 290 291 291 289 292 292 289 289 288 288 291 292 292 290 287 286 291 285 283 289 291 289 291 291 290 291 292 292 293 293 293 294 295 296 297 297 298 297 297 298 298 297 297 297 296 297 298 297 298 298 297 298 299 299 298 298 296 297 300 303 300 300 300 299 298 298 298 298 298 298 299 298 299 298 298 298 296 296 295 295 296 295
289 288 290 291 289 292 292 291 292 292 291 291 290 290 290 292 291 289 289 292 291 287 286 291 292 290 293 293 293 293 294 294 293 292 293 293 294 296 296 295 295 295 296 298 299 298 297 297 298 298 298 298 297 298 298 297 297 296 295 295 295 296 299 301 300 300 300 299 298 298 300 299 297 297 295 294 295 295 294 293 292 291 292 292 293 294
293 288 290 291 288 290 290 291 292 291 290 290 290 290 291 291 291 291 292 293 292 290 292 293 292 292 295 294 295 294 295 295 293 292 292 292 294 294 294 293 294 296 297 298 299 299 299 299 298 299 299 297 298 297 297 296 296 296 296 295 295 296 295 298 300 300 301 300 299 299 299 296 295 295 295 294 293 291 290 290 289 290 290 290 290 291
295 289 292 289 287 287 290 291 290 291 290 288 290 291 291 291 291 292 292 292 292 291 293 293 291 291 296 296 297 296 295 292 291 292 292 293 293 293 293 294 294 296 296 297 297 298 299 299 298 299 299 298 298 298 298 298 295 294 294 295 296 296 296 298 299 299 300 300 300 299 295 294 293 292 291 291 290 290 289 289 289 289 289 289 290 290
295 289 291 288 286 286 289 289 288 287 288 287 287 289 290 289 287 290 289 292 290 289 290 290 289 290 296 298 296 296 291 292 292 292 293 292 294 295 294 294 295 296 297 298 298 297 297 299 300 301 300 298 297 297 296 296 296 295 296 296 297 296 296 297 298 299 299 299 299 297 295 293 292 290 290 290 290 290 290 289 289 289 289 289 289 289
293 290 288 288 285 285 288 288 286 286 285 284 285 289 290 291 292 292 293 293 293 294 289 287 289 295 294 296 297 296 293 292 292 292 291 292 293 293 294 294 295 295 296 296 297 297 297 296 299 301 299 298 298 297 297 297 296 297 296 296 296 296 296 296 296 298 298 298 297 296 294 292 291 290 290 290 289 290 289 289 288 288 288 289 288 288
293 292 289 291 285 286 286 286 287 285 280 281 293 294 293 290 291 289 289 292 293 294 292 295 295 296 295 296 296 296 296 294 295 295 296 295 294 292 293 293 294 295 296 297 297 297 297 297 297 298 298 298 298 298 297 297 297 297 295 295 295 295 295 294 294 296 296 294 295 294 293 292 291 290 290 289 289 288 288 287 288 288 288 288 288 288
290 292 289 289 287 283 285 286 283 279 280 292 296 296 295 294 293 292 292 293 294 295 295 295 295 295 294 295 296 298 299 300 299 296 296 295 296 295 295 295 297 298 299 298 296 295 295 297 297 295 295 296 296 294 295 294 293 293 292 293 294 292 293 291 293 296 295 293 293 292 292 292 291 290 290 289 288 287 287 287 287 287 287 287 287 287
289 290 290 289 288 285 284 284 277 279 288 294 295 296 297 296 295 293 290 293 294 294 295 294 295 296 297 297 297 298 299 299 297 297 298 297 296 297 295 297 298 300 297 295 295 296 296 295 296 297 296 294 293 294 295 295 292 293 291 290 292 290 291 291 292 293 293 293 294 293 292 291 291 290 289 288 288 287 287 287 287 287 287 287 287 287
294 292 290 286 287 281 282 283 284 288 286 289 290 291 293 291 291 290 285 289 294 295 295 294 295 296 297 298 298 296 295 294 294 298 298 296 296 297 299 300 301 301 299 297 297 297 297 296 295 295 293 293 294 295 294 292 292 291 290 290 290 290 289 290 291 292 293 293 292 292 292 291 291 290 289 288 287 287 287 287 287 287 287 286 287 286
293 290 290 288 284 287 282 281 282 283 281 286 292 296 298 297 297 296 291 289 295 296 297 296 295 296 296 297 296 292 292 290 292 295 297 295 298 300 300 302 302 299 295 296 295 294 294 293 293 292 296 294 292 293 292 291 291 290 290 289 289 289 288 289 290 291 292 292 293 292 292 292 291 290 289 288 288 287 287 287 287 286 286 286 286 286
290 292 289 288 285 285 283 280 280 280 284 291 293 294 296 297 296 293 288 286 294 297 297 297 296 297 296 296 293 291 290 289 292 295 296 298 298 300 300 301 300 296 296 296 296 295 292 293 294 293 291 292 292 291 290 290 290 290 289 288 288 288 288 288 288 290 292 293 293 293 292 291 290 289 289 288 288 287 287 287 287 286 286 286 286 286
285 286 286 285 283 285 284 282 281 284 285 289 292 292 295 297 297 292 281 282 295 296 298 297 297 297 297 297 294 293 293 290 292 296 296 298 300 300 300 299 296 295 295 294 291 294 293 290 290 288 290 291 291 289 290 289 290 288 288 287 288 288 288 288 288 288 287 290 292 292 292 291 289 288 288 287 287 287 287 287 286 286 286 286 286 286
284 284 285 283 285 285 285 284 285 286 292 291 294 295 296 297 294 285 280 290 294 297 298 298 297 298 297 296 294 292 295 298 299 300 296 296 297 297 297 296 296 296 296 295 294 290 290 290 292 292 291 289 288 289 289 289 289 288 287 288 288 287 287 286 287 287 288 290 291 291 290 290 289 288 288 287 287 287 287 287 286 286 286 285 286 286
285 285 284 286 284 283 285 283 284 287 291 294 294 296 297 293 284 284 293 292 293 291 297 298 297 297 297 297 296 297 298 299 299 299 291 294 296 297 296 294 292 290 288 288 288 289 289 288 286 286 286 286 288 288 289 289 289 288 287 287 286 285 285 287 287 288 288 290 290 289 289 288 287 287 287 287 286 286 286 286 286 286 285 285 285 285
285 284 282 283 285 285 284 282 282 280 290 296 294 292 295 289 290 291 290 289 289 292 292 294 297 298 298 297 298 298 298 297 296 296 288 289 290 292 291 289 290 291 290 288 287 286 289 288 287 286 285 285 286 288 288 288 288 287 286 287 285 286 287 287 288 288 288 288 288 288 287 287 287 287 287 286 286 286 285 285 285 285 285 285 285 285
291 285 285 285 288 282 283 281 283 290 291 297 296 290 293 293 292 292 290 289 290 290 291 291 293 293 295 297 297 296 296 296 295 291 290 288 288 288 287 287 287 287 286 286 286 287 287 287 286 285 284 284 284 286 287 288 287 287 286 285 285 285 286 286 286 286 286 285 285 285 286 286 286 286 286 286 286 286 285 285 285 285 284 284 284 283
291 288 290 286 289 287 285 288 292 291 296 298 299 297 298 297 294 292 296 293 290 289 288 293 293 293 295 297 297 297 296 296 296 294 291 292 291 289 289 288 289 288 288 287 286 286 286 288 287 285 284 282 283 283 284 285 287 286 285 284 284 285 285 285 285 285 284 283 282 282 283 285 285 286 286 286 286 285 285 284 284 283 283 283 283 283
293 295 291 289 288 292 293 294 293 289 286 291 295 294 298 298 293 290 292 292 290 290 292 294 294 295 294 294 295 293 294 296 295 293 291 289 289 286 286 286 285 284 285 285 284 286 286 286 285 285 284 282 282 283 282 282 286 286 284 283 284 283 284 284 284 283 282 282 281 280 280 280 280 283 285 285 286 285 285 285 284 284 283 283 283 283
289 292 291 288 289 289 285 294 292 292 289 289 292 291 290 292 296 287 288 291 291 289 290 290 290 291 292 292 294 294 294 294 293 293 289 287 287 287 287 288 287 287 287 286 286 287 286 286 285 284 283 283 280 281 282 282 282 282 282 283 282 283 283 283 283 282 281 280 279 278 279 279 278 277 278 279 283 285 285 285 284 283 283 283 282 282
287 292 290 290 288 288 290 293 294 295 290 291 294 293 292 292 291 288 289 288 289 288 288 289 289 290 290 291 293 293 293 290 290 290 287 289 289 288 287 287 287 285 284 284 285 286 286 286 285 283 283 282 281 281 281 281 280 279 280 280 281 282 282 282 282 281 280 279 279 279 278 279 279 279 277 276 277 277 277 278 279 281 282 282 282 281
288 292 287 290 288 290 292 293 289 290 293 293 289 290 290 292 291 290 289 289 287 288 287 287 287 288 289 292 289 289 289 288 287 289 288 288 287 287 288 287 286 287 285 284 283 285 287 285 284 283 282 281 281 280 279 277 277 277 278 278 280 281 282 281 280 280 278 279 279 279 278 279 278 277 278 277 276 276 278 277 277 277 276 276 279 279
290 287 291 290 287 287 288 291 293 288 288 292 291 291 291 290 291 291 289 289 289 290 288 287 286 285 286 286 288 288 290 289 287 287 288 288 288 287 286 285 285 284 282 282 283 284 284 284 284 282 281 280 279 278 277 276 275 275 275 276 277 280 280 279 279 278 278 278 278 278 278 278 277 276 277 277 277 275 276 279 280 279 278 276 282 283
291 291 291 287 288 287 293 295 294 294 294 291 293 294 294 289 290 290 291 291 291 289 288 287 286 286 286 286 285 288 289 289 287 285 286 286 287 286 286 286 285 283 282 283 283 283 283 282 281 280 280 279 278 276 275 274 274 274 274 274 275 278 279 279 279 278 278 278 277 278 278 277 277 277 276 277 276 276 274 276 276 283 284 283 281 282
Wind_Speed
5 11 12 12 9 10 9 10 10 8 7 4 7 6 5 3 2 6 4 5 5 3 7 8 9 10 7 9 10 12 6 6 6 7 6 5 5 5 6 7 8 7 8 6 7 10 10 10 9 8 6 7 7 7 9 10 9 10 10 8 11 11 10 8 8 8 8 8 7 6 7 7 6 7 7 7 7 6 6 7 7 8 8 8 9 9
7 9 11 8 11 13 12 11 12 11 8 5 4 3 5 3 4 0 6 4 3 3 3 5 8 10 10 9 7 6 9 10 10 8 7 7 6 6 7 7 8 8 5 5 5 7 8 8 8 7 6 6 9 9 9 11 12 10 10 11 10 10 11 11 9 8 8 8 8 9 9 7 7 8 9 8 7 8 6 6 9 9 9 10 9 10
8 12 8 9 9 10 10 10 11 10 8 8 4 1 2 4 3 5 7 3 3 1 6 5 7 9 10 10 9 9 8 6 8 9 7 8 8 8 8 9 7 6 7 6 7 7 8 9 9 8 7 8 10 10 10 10 10 11 11 10 10 9 11 11 11 10 10 9 8 8 7 9 7 6 7 8 8 8 8 8 6 7 8 9 8 9
10 6 11 12 10 11 12 12 11 9 7 5 3 3 3 2 4 2 4 5 4 4 1 1 5 8 7 5 8 8 9 9 7 9 9 9 10 11 10 9 9 9 8 8 9 9 8 9 9 8 9 10 8 8 8 8 11 10 10 10 11 11 10 11 12 11 9 9 9 9 7 7 7 5 5 6 6 7 8 9 7 6 7 7 8 8
5 7 9 13 12 13 13 12 11 8 7 5 4 4 3 3 3 1 3 2 3 4 3 4 6 9 9 11 11 11 11 10 11 9 8 7 8 7 7 7 10 11 11 10 9 9 9 9 11 13 12 9 10 10 11 11 11 10 13 13 12 11 12 11 11 12 9 8 7 8 6 5 6 4 5 6 8 9 9 9 9 9 8 9 9 9
5 11 10 14 13 13 13 12 12 7 5 5 5 4 4 4 4 9 4 3 1 3 3 3 3 4 3 10 12 7 7 13 11 12 12 9 8 8 8 8 7 8 10 12 12 13 14 14 12 11 10 11 11 12 12 12 13 10 9 10 10 9 9 10 10 11 10 9 9 9 9 10 9 10 9 11 12 11 11 12 9 9 10 10 9 9
6 10 12 15 12 11 11 9 9 7 5 4 5 7 8 11 3 8 6 2 2 3 0 0 4 6 3 3 2 5 7 10 9 12 13 13 13 12 12 11 10 9 7 7 8 9 12 12 12 12 12 13 13 14 11 9 10 10 9 9 10 10 9 8 8 10 10 10 9 11 12 11 11 11 10 8 7 9 9 8 10 10 10 10 10 10
7 13 14 11 13 12 10 10 9 11 5 5 1 5 11 13 2 2 1 2 3 2 2 3 2 4 8 6 5 6 4 7 9 12 15 14 13 13 12 12 11 11 11 11 10 9 10 13 14 15 16 14 16 13 10 11 10 12 12 10 12 10 10 9 8 11 12 12 11 11 11 11 12 12 11 10 9 8 7 9 10 9 9 11 11 11
15 13 16 16 13 10 13 10 6 13 8 1 2 2 4 4 1 2 3 2 1 5 4 3 1 1 6 3 5 7 6 8 10 9 10 13 13 13 13 13 13 13 13 13 12 12 11 10 12 12 12 14 11 9 11 12 12 11 10 10 10 12 11 10 12 12 13 13 12 12 11 11 10 10 9 6 7 8 8 8 8 9 9 10 10 10
5 14 14 14 10 12 9 10 8 10 7 1 1 4 3 3 2 2 2 1 2 1 4 4 5 3 11 6 4 5 8 11 11 10 10 10 11 12 12 12 13 12 11 11 13 12 12 10 9 10 8 7 9 9 7 6 6 8 8 11 12 12 11 11 12 13 13 14 12 12 13 13 11 8 6 6 7 8 8 9 7 7 8 9 8 8
1 4 10 10 12 7 5 6 5 8 3 4 7 8 6 4 3 3 3 1 1 6 4 4 6 3 8 3 9 8 8 9 6 5 8 9 8 8 9 10 9 8 9 9 9 8 8 8 8 7 8 8 7 8 8 8 8 7 9 10 12 13 10 11 12 12 13 13 13 13 13 13 12 10 8 7 8 7 7 9 9 8 7 7 8 8
4 3 6 3 3 4 7 2 4 5 8 8 3 5 6 4 4 1 0 1 2 4 2 6 7 9 7 3 3 6 1 7 10 8 10 7 7 10 10 10 11 10 7 6 6 4 5 5 5 5 6 6 7 7 8 8 8 9 9 9 11 10 11 10 11 12 13 12 12 12 12 11 11 9 8 10 10 9 9 9 9 8 7 7 8 8
9 11 3 3 4 4 6 6 2 6 8 6 8 8 7 3 2 3 3 3 5 4 1 4 5 3 16 10 7 3 2 4 6 8 6 5 7 2 2 0 0 2 4 5 5 5 5 5 5 5 5 5 6 9 9 9 8 8 8 9 10 11 11 10 9 10 11 10 11 11 10 9 7 8 8 9 9 8 9 8 8 8 10 8 8 9
1 3 0 2 3 3 7 12 6 7 7 9 10 9 8 5 4 6 4 2 2 1 2 4 3 7 2 6 15 20 13 7 6 5 5 6 2 4 4 5 4 4 4 4 4 4 5 6 6 7 8 8 8 8 9 8 8 7 7 8 10 11 8 8 8 9 10 11 11 9 9 9 8 8 8 8 9 9 8 8 8 9 9 10 11 10
8 8 9 11 7 7 9 9 7 2 9 7 4 8 6 5 3 6 4 6 4 2 0 1 2 6 6 5 3 5 3 5 5 6 6 2 0 3 4 5 5 4 4 5 5 6 7 8 7 7 6 6 6 6 6 6 7 6 7 8 10 9 8 8 10 8 10 10 9 9 9 9 8 9 9 9 8 8 8 8 8 8 7 9 9 10
17 4 3 10 2 9 9 4 8 10 4 1 1 4 4 7 1 2 1 1 2 1 1 2 6 2 3 3 6 5 3 4 3 2 2 2 3 2 2 3 5 5 5 6 6 7 7 6 5 5 5 5 5 5 5 5 5 5 6 5 5 6 5 5 7 7 8 7 7 7 9 9 8 8 8 8 7 7 7 8 9 9 8 7 7 8
9 8 6 7 3 16 14 7 8 13 10 8 6 8 4 2 0 1 2 1 1 2 8 4 5 6 5 9 12 9 6 6 5 6 5 5 5 4 5 5 5 6 6 5 6 5 5 4 4 4 4 3 3 3 4 3 3 4 4 3 4 5 4 5 5 5 5 5 5 7 7 7 7 7 7 7 6 6 5 6 7 8 8 6 7 7
10 4 2 6 4 6 2 2 6 11 3 6 8 8 4 5 2 2 4 1 2 6 5 7 7 3 1 7 5 11 8 6 5 7 7 6 5 5 6 5 5 5 5 5 4 4 4 4 5 4 3 4 4 4 3 2 1 1 1 2 3 3 5 5 4 5 5 5 5 5 5 5 6 6 6 6 6 6 7 7 6 6 7 9 7 6
11 6 2 2 6 3 3 4 5 2 2 10 6 5 8 3 5 3 2 5 3 5 4 4 6 6 9 7 1 3 7 8 6 6 6 6 6 6 6 5 5 4 4 4 4 4 4 4 3 4 5 4 4 4 4 3 2 1 0 0 1 4 5 5 4 4 3 4 4 4 5 5 6 6 6 6 6 6 6 7 7 7 8 6 7 7
8 6 3 2 1 3 4 6 10 11 0 2 2 7 4 2 0 6 8 1 3 6 1 4 6 6 6 6 8 8 11 10 7 6 8 8 8 7 6 5 5 5 5 5 5 5 4 4 5 5 5 5 5 4 4 4 3 2 2 2 1 1 1 1 5 5 5 5 4 3 3 3 3 5 5 5 5 7 7 6 5 5 5 5 4 5
8 5 7 2 2 6 6 8 12 14 11 5 7 8 6 2 1 2 1 5 4 2 3 3 4 5 5 9 11 10 10 11 8 6 4 5 7 8 7 7 5 5 4 4 4 4 4 4 4 4 4 5 4 4 4 4 5 5 4 4 4 4 3 2 3 2 4 2 1 0 1 2 2 3 2 2 3 4 4 3 2 2 1 0 2 2
4 8 11 7 4 10 9 5 3 12 11 9 10 11 12 9 4 8 8 3 3 3 5 2 9 1 5 0 5 5 4 4 4 6 5 5 5 6 5 5 5 4 2 4 4 4 4 4 5 5 5 4 5 5 5 5 4 5 5 4 4 4 4 4 4 2 1 2 2 3 3 3 3 3 3 3 3 4 3 3 2 2 2 3 4 4
6 4 11 8 8 8 2 1 3 3 2 6 8 7 7 5 2 1 8 6 2 4 1 1 5 9 6 1 3 2 5 5 3 5 5 5 5 5 4 4 3 3 4 4 4 4 4 4 5 6 7 7 7 6 5 4 4 4 4 4 4 4 4 3 3 3 1 1 1 1 1 1 3 3 4 4 4 4 4 4 4 1 3 4 5 4
11 5 10 6 4 4 2 1 3 2 2 8 8 5 7 13 15 12 4 2 6 1 1 3 7 3 2 3 2 3 3 5 4 5 6 4 3 3 4 4 4 3 2 2 2 3 4 5 4 5 5 5 5 5 6 5 4 4 4 4 4 4 4 2 1 1 1 1 1 1 1 1 2 2 4 4 4 4 3 3 4 3 4 4 4 4
8 6 13 9 6 3 4 3 2 1 1 6 10 13 12 8 7 4 2 1 1 7 5 6 12 4 3 1 3 3 2 2 2 1 2 2 2 3 4 4 4 4 3 3 4 4 4 4 5 5 5 5 5 5 5 5 5 5 5 4 4 4 4 2 1 1 1 1 1 1 1 2 2 3 4 4 3 3 3 2 2 2 3 4 4 4
1 7 14 16 17 15 12 12 16 16 18 8 5 9 10 12 13 8 8 3 8 4 7 5 10 1 1 3 3 1 1 0 2 2 1 3 2 4 3 4 4 4 4 4 4 4 4 5 4 4 5 5 5 6 5 5 5 5 4 5 4 4 4 4 4 4 2 1 1 1 1 2 2 2 2 2 3 3 3 2 1 2 2 1 3 3
3 8 10 10 14 15 12 3 2 7 7 3 5 13 13 8 4 5 2 5 13 9 7 9 10 5 5 5 4 4 4 5 3 2 3 3 3 1 2 3 4 4 4 4 4 4 2 3 5 5 5 4 4 5 5 5 6 5 5 5 5 5 4 5 4 4 2 1 1 2 2 2 2 3 2 2 3 4 4 3 1 1 2 1 1 2
3 6 10 10 13 11 6 6 12 15 14 11 9 6 6 13 12 10 11 16 13 4 9 13 15 15 21 7 4 6 6 5 4 5 5 3 4 5 5 3 3 2 3 2 2 3 5 5 5 5 5 5 5 5 5 6 7 7 7 7 5 5 4 3 2 3 4 4 3 3 2 2 3 3 1 0 1 0 0 0 1 1 0 0 1 2
6 8 8 11 11 9 8 9 14 12 13 16 19 18 18 17 18 18 19 20 12 12 18 21 18 17 21 7 9 8 8 9 8 7 7 6 4 4 4 4 5 5 5 5 5 5 5 5 6 6 6 7 6 7 7 6 6 5 5 4 5 5 5 4 3 3 4 4 5 3 3 3 2 2 1 0 0 0 0 1 1 1 0 0 0 0
5 7 5 9 6 7 7 11 11 14 11 11 15 17 16 16 19 22 20 18 16 14 17 21 14 19 19 5 9 7 7 8 6 4 4 5 5 6 6 6 6 6 6 6 6 6 6 6 5 5 5 6 8 7 6 6 6 5 5 5 5 6 5 6 6 5 5 5 4 4 4 4 3 3 2 1 1 1 1 1 1 1 1 1 0 0
12 8 13 8 7 7 8 9 11 13 13 13 15 18 17 15 16 19 18 18 15 16 19 21 19 21 10 4 7 9 8 4 4 6 7 8 7 6 6 7 6 6 7 7 7 7 7 6 5 5 6 7 8 9 8 7 5 4 5 5 6 7 7 7 7 6 6 6 5 5 5 4 4 3 2 2 3 3 2 2 2 2 1 1 0 0
14 6 7 5 8 8 9 10 7 7 8 12 12 16 19 19 18 18 19 21 17 16 18 17 17 19 14 7 4 1 5 8 8 9 10 7 6 8 8 8 7 6 7 9 8 7 6 6 6 7 8 8 8 7 6 5 6 6 7 7 8 7 7 7 7 7 6 5 5 5 5 4 4 3 3 3 3 3 3 3 3 2 2 1 0 1
13 8 9 9 11 13 9 9 7 5 3 8 16 19 23 24 22 18 16 14 14 17 19 17 22 23 2 6 12 8 6 8 10 9 6 7 8 10 10 9 9 8 9 8 7 7 7 7 8 9 8 7 7 6 7 8 7 8 8 8 8 7 8 7 6 6 5 5 4 5 5 4 4 4 3 3 3 3 3 3 3 2 1 1 1 1
9 11 8 10 12 9 8 9 7 6 15 17 15 23 22 20 17 14 17 23 22 17 15 19 21 12 5 9 9 11 12 9 11 11 11 12 11 8 8 7 7 8 10 10 9 8 7 7 7 9 10 8 8 9 8 8 8 7 6 7 6 8 7 7 5 5 4 5 5 5 5 5 4 4 3 4 4 4 3 2 2 2 2 2 1 1
15 13 8 5 7 5 10 12 9 16 15 16 4 7 12 15 17 24 25 24 22 22 23 23 21 14 5 6 9 12 13 14 11 10 10 8 10 10 9 8 8 13 17 12 8 7 8 9 8 7 6 7 7 5 6 5 5 5 5 5 6 5 6 5 5 5 5 5 5 5 5 5 4 4 4 4 3 3 3 3 2 2 2 2 2 2
11 12 7 7 5 4 7 11 10 12 7 1 6 12 13 15 21 19 22 26 27 25 22 22 22 16 12 14 11 10 11 12 9 12 14 10 8 9 7 9 11 18 11 7 7 9 9 8 9 9 9 6 6 6 6 6 5 6 5 5 6 6 5 6 5 5 5 5 5 5 5 5 5 4 5 4 4 3 3 3 3 4 3 3 2 2
6 11 8 6 4 10 7 12 14 3 4 3 7 11 16 22 22 21 17 23 21 15 14 19 23 21 19 19 15 9 7 5 8 15 12 9 7 7 11 14 19 20 10 8 8 10 10 8 7 8 5 6 6 7 7 6 6 7 6 6 5 6 5 6 6 6 6 6 6 6 6 6 6 5 5 4 4 4 4 4 4 3 3 3 3 3
5 7 6 11 5 5 9 6 4 7 11 12 21 15 18 10 8 10 12 19 10 16 21 22 23 22 21 16 11 6 4 5 13 20 9 8 9 13 15 18 20 13 6 7 7 7 7 7 6 6 9 8 7 7 7 8 8 8 7 6 6 6 5 6 6 6 6 6 6 7 7 6 6 5 5 5 5 4 3 2 2 2 2 3 3 3
4 3 3 8 5 7 5 10 9 11 16 21 15 10 7 6 11 10 4 18 21 18 19 20 24 21 17 16 11 9 8 13 21 18 10 13 14 17 19 22 15 8 8 9 9 8 7 8 9 9 6 7 8 7 8 8 9 8 7 6 6 6 7 6 6 6 7 6 6 6 6 6 5 4 5 4 4 4 3 3 3 2 2 1 1 0
2 1 2 5 3 7 9 9 12 6 14 9 8 11 12 13 14 12 7 14 30 13 16 20 25 23 19 15 13 15 18 19 24 11 10 17 21 20 20 18 9 9 9 9 6 9 9 6 5 5 7 9 8 7 9 9 8 7 8 7 6 7 7 7 7 5 5 4 5 5 5 5 4 4 4 3 2 2 2 2 2 2 2 1 1 1
5 2 4 9 7 7 10 5 3 7 12 3 14 14 16 16 15 13 15 28 3 20 22 20 20 19 15 13 13 16 19 20 19 16 10 14 16 15 13 11 10 13 14 12 11 7 7 8 10 11 11 7 7 8 7 8 8 7 6 7 7 6 6 6 6 6 5 5 6 5 5 4 4 4 3 3 3 3 2 2 2 2 2 1 1 1
4 4 3 2 5 8 6 10 10 10 8 7 7 16 17 14 11 22 20 5 8 5 15 16 18 16 16 19 17 18 19 21 22 19 8 12 15 16 13 11 8 4 1 1 8 8 6 6 5 4 4 5 8 8 7 8 8 7 7 6 6 6 5 6 7 7 6 6 6 5 5 5 4 4 4 4 4 4 3 2 3 3 2 2 2 1
11 9 9 10 5 2 2 4 2 10 9 21 14 12 14 17 19 6 5 2 1 4 7 9 15 16 16 16 18 20 19 15 17 15 5 6 7 9 8 7 9 9 8 6 5 5 9 7 7 6 6 4 6 7 7 8 8 7 6 7 6 5 6 6 7 7 7 6 6 6 5 5 5 4 4 4 4 4 3 3 3 3 3 2 2 1
9 9 6 6 6 9 10 12 12 16 2 19 22 16 17 5 1 7 2 0 0 5 6 6 9 6 10 13 14 15 16 14 12 7 7 7 6 6 5 5 5 5 3 2 5 7 6 7 6 7 5 4 5 5 6 9 9 7 7 7 5 6 6 7 6 7 7 7 6 6 6 5 5 4 4 4 4 4 4 3 3 3 3 2 2 2
9 12 13 15 12 11 13 14 14 4 13 18 17 11 16 14 3 3 11 8 6 4 3 7 8 8 10 13 14 16 15 15 16 12 10 12 10 9 10 10 10 11 10 10 8 6 6 10 10 8 6 4 4 4 5 5 10 9 9 6 6 7 7 7 7 7 7 7 7 6 5 5 5 4 4 4 4 4 4 3 3 3 2 2 2 1
10 15 2 4 3 7 11 11 5 5 4 4 5 2 10 15 6 2 3 7 4 4 7 8 9 11 12 11 13 9 12 14 15 11 9 8 9 6 6 6 5 5 5 6 5 7 7 8 9 9 9 5 4 4 4 3 6 10 6 5 5 6 7 8 8 8 8 7 7 7 6 6 5 4 5 4 4 4 3 4 3 3 2 2 1 1
1 7 5 6 3 10 12 19 18 16 6 5 8 6 5 5 7 4 4 3 1 1 3 4 2 6 8 10 11 13 14 13 11 10 6 6 7 8 10 10 9 10 12 10 9 10 10 10 10 9 8 7 3 5 5 5 4 5 5 6 5 6 7 8 8 8 8 8 7 6 6 7 5 5 4 4 4 5 5 5 4 4 3 3 2 1
7 7 8 12 5 12 18 21 17 16 6 9 10 8 6 4 1 0 1 2 2 2 4 6 1 2 2 5 11 10 11 6 7 7 6 8 10 10 9 9 10 7 4 5 9 8 9 11 11 10 9 8 6 5 6 6 5 4 5 5 6 7 8 8 7 8 8 8 7 6 6 6 8 7 6 4 5 5 5 5 5 5 5 5 5 5
5 11 5 7 11 13 18 15 6 6 13 15 6 3 3 1 1 0 1 2 3 2 2 2 3 5 7 9 5 5 5 6 6 7 7 6 6 7 10 9 8 9 10 11 7 8 11 11 11 10 10 9 6 7 7 6 5 5 5 5 6 7 8 8 7 8 7 7 7 7 5 6 5 6 6 5 4 3 5 6 6 6 4 4 6 6
10 12 12 10 10 14 17 23 18 10 11 13 8 6 5 6 6 7 6 7 9 9 8 7 6 2 2 3 4 5 7 7 6 6 9 10 9 7 6 7 6 7 6 4 6 8 9 9 12 12 11 8 7 7 7 6 6 5 4 4 4 6 9 9 8 7 7 7 7 7 7 6 6 5 6 6 6 4 1 3 7 5 6 3 3 5
15 14 12 12 13 18 25 27 4 9 15 5 11 16 12 6 6 7 9 10 11 9 7 6 5 5 5 5 5 7 9 9 8 5 6 6 7 6 7 10 10 8 8 8 10 9 10 9 10 11 11 8 7 8 7 7 6 6 5 5 3 4 6 7 8 7 7 7 6 6 6 6 5 5 4 4 5 4 4 1 1 5 6 6 4 2
Wind_Direction
144 162 185 189 177 178 189 201 204 225 216 224 171 171 216 233 176 199 123 182 198 160 215 226 245 257 251 230 226 243 220 214 213 206 203 200 211 194 183 188 199 198 212 209 189 177 186 184 185 189 182 182 186 189 186 191 193 187 187 177 181 186 183 183 187 193 184 181 186 200 205 204 187 188 190 192 196 205 202 193 191 186 178 177 184 188
190 183 199 175 170 174 187 199 213 233 258 260 248 178 191 189 243 77 139 150 189 148 246 221 248 255 252 252 240 225 224 218 205 211 206 200 198 201 202 204 195 203 207 199 184 177 176 180 184 184 184 180 188 200 193 193 194 192 189 193 190 175 186 188 189 190 197 198 194 188 196 193 197 189 184 186 186 203 218 214 196 190 185 186 184 188
198 205 161 162 166 179 197 209 222 231 236 255 253 250 226 198 157 69 103 150 119 112 273 263 265 254 245 242 244 241 232 229 198 201 204 200 206 208 205 204 199 188 196 192 188 175 177 178 180 182 190 198 199 198 198 196 193 196 197 198 193 189 184 191 191 188 196 194 195 192 195 197 202 206 184 184 187 188 208 224 216 199 191 189 192 186
193 208 170 162 174 185 198 209 219 226 240 239 177 268 200 193 169 227 159 161 160 182 243 34 316 279 280 270 260 245 232 232 224 206 206 196 203 209 208 195 191 190 189 188 182 185 182 179 180 184 194 200 198 199 205 202 200 199 201 199 195 195 193 191 195 197 193 191 191 196 196 203 205 196 178 186 184 192 206 226 224 217 203 195 195 193
172 143 162 165 181 190 195 205 214 216 218 228 212 196 223 204 216 113 121 207 152 241 268 331 297 280 243 238 239 236 233 235 228 234 230 211 205 210 211 200 185 187 187 190 187 186 181 181 190 192 196 190 195 201 202 202 202 203 202 199 197 195 196 196 192 193 190 185 188 187 194 197 208 224 192 183 202 200 204 212 219 219 208 206 203 201
156 162 170 177 178 192 194 202 210 196 220 213 215 210 231 250 232 107 146 157 195 280 193 158 324 291 230 219 234 237 204 222 223 221 224 217 209 208 215 214 206 194 185 187 189 186 187 191 194 196 190 192 200 203 206 202 205 204 202 200 202 203 201 200 194 188 187 194 190 181 187 200 200 205 202 201 199 195 199 207 209 217 215 211 209 206
168 157 179 179 184 188 205 213 200 197 208 189 200 193 240 252 260 136 149 110 283 246 317 33 183 268 357 319 248 223 211 218 212 217 227 220 212 208 210 208 207 200 203 201 196 186 185 194 189 194 193 197 199 209 200 198 202 202 201 197 198 202 203 199 193 185 188 196 200 199 199 201 202 204 212 209 198 198 203 196 203 208 213 214 212 212
163 171 178 185 184 189 200 210 192 191 205 223 41 195 212 236 170 70 58 167 270 92 205 177 183 272 288 256 257 270 234 226 217 212 218 223 222 218 214 211 209 206 203 203 206 203 192 190 188 192 198 196 203 201 185 198 197 199 200 193 196 199 201 197 189 186 190 198 201 204 208 207 210 209 210 199 202 197 191 198 202 202 208 210 211 210
159 172 178 181 190 188 204 200 175 186 205 234 320 49 183 168 208 153 130 273 214 71 291 166 72 320 250 265 206 206 229 233 233 225 221 219 218 217 216 216 216 211 206 198 203 208 208 195 196 195 196 203 200 182 192 195 197 196 196 197 195 199 199 198 192 193 191 196 199 205 211 216 219 215 214 196 194 198 195 202 199 199 203 207 208 206
181 180 182 177 187 199 191 189 200 179 200 274 124 62 63 75 29 111 124 170 260 126 237 169 163 231 274 234 229 214 218 229 225 222 232 223 213 211 216 220 219 214 211 206 202 204 204 204 197 196 191 183 192 192 192 193 188 194 194 199 199 205 200 196 196 196 197 195 195 205 212 216 217 212 210 193 200 198 191 205 203 196 195 198 203 205
115 350 181 186 201 198 171 201 192 179 152 149 93 88 75 59 69 49 41 30 35 252 223 191 177 159 293 207 198 184 219 212 213 223 225 232 231 223 218 217 216 214 209 208 207 202 196 192 188 169 167 178 172 178 178 184 188 188 196 201 203 209 200 198 200 195 201 196 198 208 210 213 215 207 202 200 206 194 191 201 206 206 197 191 199 201
143 159 182 221 40 183 169 125 343 156 141 139 121 127 94 41 74 72 38 66 222 245 137 185 180 173 218 270 259 225 313 195 195 214 224 228 226 222 214 210 212 211 204 197 190 164 132 113 111 135 158 156 164 164 179 186 185 189 196 198 207 209 205 202 201 199 203 201 203 208 209 212 214 204 203 207 208 202 202 201 204 206 203 200 197 201
173 190 168 64 320 167 160 113 6 129 161 136 137 138 137 163 115 203 156 214 214 240 223 182 181 236 236 253 272 298 224 256 200 209 214 224 232 211 47 2 112 95 108 121 138 140 145 164 173 176 194 183 176 185 189 190 190 193 194 199 203 213 207 204 198 201 203 204 210 207 209 215 208 207 207 208 211 206 207 202 202 198 207 202 201 205
165 2 284 162 194 227 172 168 160 153 198 160 166 161 159 165 174 218 176 215 281 49 325 72 42 260 336 269 230 240 232 214 219 229 233 235 243 106 142 113 99 103 120 130 147 168 190 196 202 201 198 198 204 202 195 195 193 196 199 202 205 216 205 204 203 204 204 208 210 207 206 209 205 212 210 211 209 209 209 204 208 204 204 204 207 202
149 187 225 163 199 165 202 194 168 109 158 173 144 167 190 165 166 193 175 206 196 174 192 199 113 229 134 257 293 273 239 246 237 217 215 209 122 145 128 131 138 164 185 173 176 190 201 207 199 200 197 202 209 209 203 196 202 196 209 208 213 217 212 205 208 204 207 207 204 204 205 204 202 210 211 214 207 201 203 204 209 212 205 204 205 204
188 171 161 171 69 153 183 167 133 119 107 243 158 31 220 216 78 180 175 88 124 122 256 247 207 256 234 312 286 243 245 248 260 256 168 217 234 232 229 191 192 201 204 200 202 212 215 205 196 189 189 185 182 189 190 198 190 198 214 221 236 233 229 218 211 211 208 206 200 202 207 209 206 206 207 213 210 208 200 202 205 212 211 205 195 199
173 205 174 144 250 173 181 151 168 149 179 185 151 211 203 340 218 116 17 146 92 24 247 161 293 295 279 286 273 266 235 239 216 229 217 228 204 197 230 240 216 209 213 208 204 203 191 177 182 179 170 156 154 169 186 194 189 193 199 210 231 237 234 229 226 219 209 204 199 208 206 205 207 204 207 210 214 217 217 209 210 209 210 206 202 199
159 123 345 150 138 201 60 123 156 176 118 124 199 203 114 58 68 126 205 82 213 238 263 145 212 278 206 286 239 229 238 232 206 208 208 202 194 198 224 225 217 214 205 186 163 156 159 164 170 168 159 166 167 168 153 137 93 98 145 182 208 229 223 233 223 219 210 204 208 209 209 209 205 206 211 209 212 213 215 221 215 210 207 210 206 197
118 84 274 306 159 126 124 108 148 230 346 186 176 129 157 213 209 205 105 240 196 234 264 221 199 230 181 233 27 247 228 238 218 207 185 196 191 207 223 221 216 190 149 147 166 162 159 162 174 168 170 161 131 129 138 126 114 126 80 1 197 212 215 214 219 216 224 205 204 207 210 209 214 212 211 213 212 213 218 220 218 208 213 209 204 200
156 126 114 336 175 193 145 167 182 185 1 345 132 187 228 59 260 158 197 9 118 247 179 288 153 248 190 227 191 207 213 225 219 200 194 190 191 194 207 200 189 172 180 177 162 160 163 171 176 178 160 160 159 140 121 121 124 151 176 172 232 340 4 203 203 205 210 213 199 208 211 225 223 223 217 216 214 223 228 233 231 231 217 216 194 199
167 118 148 180 264 146 187 197 196 180 171 180 173 182 187 187 285 96 235 187 167 197 216 264 279 275 240 214 205 201 200 215 208 201 195 202 186 192 187 183 175 169 164 159 152 151 155 161 147 140 131 124 114 121 140 155 167 167 162 175 192 197 207 212 228 197 196 171 186 74 285 285 300 286 281 260 243 242 255 264 269 281 289 43 216 173
140 155 147 138 158 197 203 189 194 181 180 186 182 187 181 161 127 171 236 175 216 184 237 215 251 289 275 267 195 215 191 153 173 167 187 190 173 164 148 146 147 136 156 153 152 152 155 160 148 126 116 136 143 156 166 178 167 169 174 188 191 203 201 200 225 217 172 163 192 230 239 251 279 294 304 291 290 278 281 285 291 266 275 233 227 181
149 105 123 161 183 180 145 69 102 30 201 194 177 203 176 172 170 159 217 229 158 246 100 119 322 260 249 330 343 212 150 129 123 104 101 114 114 119 126 132 136 161 159 152 158 163 168 176 169 164 167 173 177 177 173 172 176 180 181 180 192 186 213 188 193 196 178 165 200 260 304 316 304 310 308 304 291 280 269 272 270 257 234 238 234 221
79 112 105 103 60 38 80 112 29 353 99 186 217 208 177 196 196 204 185 146 179 177 218 224 236 261 315 341 7 42 108 111 71 92 124 117 95 109 140 149 161 163 164 147 153 164 165 172 152 149 168 175 180 168 173 174 180 183 184 186 183 193 210 195 160 133 152 162 180 215 248 259 248 242 255 265 268 266 271 268 258 248 237 237 230 228
153 209 130 130 125 131 46 54 235 198 221 206 200 201 206 205 197 204 85 47 268 219 184 141 240 239 261 346 351 11 45 87 108 74 107 128 180 193 177 158 148 155 159 176 184 190 171 165 176 193 192 188 183 180 173 174 181 183 193 190 191 192 197 186 163 176 176 155 175 244 215 238 233 225 238 258 285 281 281 280 283 297 278 276 259 241
114 141 151 163 167 166 170 186 189 198 206 199 207 187 206 201 193 171 217 156 233 199 175 202 247 232 284 329 297 250 291 267 89 136 214 184 185 149 135 154 160 158 170 180 178 156 192 206 202 200 203 194 183 179 178 181 184 190 192 197 189 186 183 189 196 181 156 131 155 239 299 302 317 301 257 250 279 291 298 308 303 285 277 250 255 255
156 169 187 182 186 191 190 185 80 76 64 148 165 189 199 202 187 195 170 216 226 218 201 235 248 264 263 246 277 297 281 241 202 197 200 228 232 196 176 170 173 174 179 187 188 197 181 189 203 207 200 192 180 173 175 180 190 193 192 193 189 184 175 194 181 145 135 162 176 213 221 243 265 291 297 280 265 272 286 291 296 287 273 299 279 253
105 174 190 181 199 195 149 144 140 154 174 181 176 181 170 187 200 199 198 219 217 207 258 238 233 237 241 198 203 232 243 246 226 201 214 208 189 189 207 197 198 192 215 189 174 183 203 218 215 206 200 183 182 174 181 193 195 195 191 193 185 170 165 191 173 155 167 179 197 199 214 206 216 231 238 9 28 13 345 340 310 298 353 71 254 224
143 182 189 183 205 190 163 146 150 164 181 184 186 184 189 184 190 203 213 222 198 199 225 234 223 236 249 180 217 210 217 213 212 203 201 190 170 166 158 172 201 217 210 194 211 212 208 215 211 202 188 188 174 186 199 204 209 198 192 182 173 161 166 171 179 183 181 183 190 193 191 194 135 102 106 102 82 84 53 40 46 46 44 50 53 98
136 207 163 184 186 184 170 157 164 166 178 185 190 195 195 189 198 206 218 221 213 222 232 247 238 235 244 196 219 209 210 208 213 178 132 137 177 186 189 196 205 210 199 197 210 212 210 215 209 196 185 179 186 193 201 208 209 201 183 179 171 168 174 163 187 187 195 195 183 178 166 138 131 131 124 121 115 100 93 83 68 69 63 58 73 106
181 192 167 168 185 203 199 175 173 172 172 191 192 196 197 198 205 211 218 224 219 232 237 242 248 254 241 183 210 208 192 141 119 156 183 201 186 188 195 204 209 208 210 207 209 207 209 211 189 172 184 202 195 196 198 203 192 182 185 183 179 176 175 168 182 192 193 195 183 171 139 142 140 134 128 129 126 113 106 101 93 83 80 76 70 86
186 208 152 139 184 217 209 199 180 174 180 188 195 197 197 196 206 208 216 217 207 217 231 244 255 253 238 195 271 222 135 148 172 191 204 210 188 191 198 204 203 212 211 214 213 208 207 197 173 180 199 212 211 196 188 182 179 177 198 187 189 183 167 170 182 189 194 191 175 152 147 148 142 139 137 119 112 120 117 109 105 100 101 94 68 55
189 167 167 167 201 219 199 177 163 142 144 219 209 199 199 204 205 209 223 230 220 212 222 222 233 237 153 161 216 224 202 194 193 198 204 209 205 200 198 198 202 209 223 223 218 215 210 202 194 192 201 205 210 197 198 180 174 195 192 187 189 165 168 176 178 182 187 187 172 155 146 147 147 146 137 130 127 119 104 105 105 106 110 114 119 110
178 180 172 172 206 202 153 142 137 162 214 220 208 204 194 198 196 206 218 222 221 210 224 227 238 243 184 217 206 209 220 211 206 212 199 192 195 208 219 214 214 224 234 227 219 212 212 206 197 199 196 190 191 191 188 179 183 196 184 175 162 165 170 164 173 174 185 173 173 152 150 149 146 148 142 131 121 116 115 110 119 117 113 110 105 131
184 176 190 162 198 178 146 132 171 216 225 231 196 143 183 194 197 213 224 224 222 217 226 237 241 243 191 206 202 211 216 225 223 218 223 202 183 189 201 209 216 231 231 224 216 208 204 200 198 191 183 186 181 171 145 169 167 150 146 155 158 160 156 162 159 175 173 167 163 154 151 147 147 144 136 127 122 120 130 144 135 130 137 142 154 164
176 184 166 186 150 91 160 167 199 227 237 235 143 168 174 188 209 211 232 232 224 217 216 232 241 236 223 228 222 221 222 229 238 237 228 211 172 173 185 213 229 238 230 213 200 207 206 209 199 191 201 189 160 168 169 174 152 136 151 141 151 154 156 157 160 170 165 168 167 160 155 148 146 142 139 139 140 145 159 162 166 166 163 153 155 157
202 173 179 191 171 169 179 181 207 65 37 195 178 187 170 200 200 196 221 240 230 221 208 226 233 229 225 226 220 222 224 232 246 249 226 191 188 203 207 224 233 242 232 216 198 210 209 206 197 199 172 169 170 167 178 152 142 139 143 147 156 153 157 154 164 171 167 168 160 156 155 155 153 151 150 156 157 173 179 173 177 174 159 163 179 184
38 199 188 168 214 149 165 184 207 245 242 221 216 195 195 200 188 194 216 266 237 214 215 219 227 226 225 227 220 209 131 211 249 246 198 149 196 218 225 230 236 239 222 211 216 212 204 201 189 181 169 171 176 174 153 149 147 145 151 159 156 153 162 159 173 169 165 168 160 162 163 164 161 161 162 163 176 179 176 168 164 177 173 177 190 215
9 18 313 213 155 151 179 187 197 207 230 229 217 167 177 156 114 105 160 253 244 205 210 211 230 226 218 215 200 149 158 217 238 239 132 169 215 219 226 233 228 216 214 205 194 191 187 188 177 175 161 154 168 174 151 144 144 147 160 163 161 159 165 178 173 170 170 171 163 159 157 161 161 162 161 169 182 170 168 176 176 143 144 165 149 208
81 235 141 209 213 202 172 189 213 204 237 243 132 169 161 126 113 103 203 250 250 175 208 208 221 220 215 206 172 184 197 221 236 226 160 187 213 217 221 231 207 217 227 223 212 193 186 158 119 137 161 181 183 150 146 147 149 155 157 164 157 166 178 179 181 173 155 145 143 140 142 149 153 152 157 166 153 153 158 127 119 131 128 145 121 134
169 122 203 208 189 198 199 229 305 281 258 138 159 157 151 126 135 178 204 234 166 150 203 205 215 218 207 200 179 208 215 222 234 237 196 194 215 227 228 231 204 204 214 216 211 174 153 175 174 181 189 177 153 152 148 147 144 154 157 155 160 179 184 175 157 148 145 134 130 132 135 129 138 140 138 140 142 130 117 132 135 112 118 118 78 85
184 136 83 104 205 193 192 205 226 257 248 135 157 143 141 140 188 207 223 65 120 173 190 191 203 203 193 197 199 214 218 216 225 230 163 188 195 215 219 215 194 174 28 178 163 153 158 158 160 130 120 144 147 147 149 145 147 150 150 149 168 186 168 140 142 138 134 132 127 128 125 119 110 110 117 112 114 119 112 97 110 117 116 110 120 145
178 167 185 186 159 64 141 190 245 258 232 152 139 144 163 181 213 199 63 2 26 182 169 197 198 203 192 204 208 216 226 224 225 227 149 185 184 198 198 166 171 175 170 141 154 174 151 156 157 151 141 131 137 147 150 146 146 149 147 148 169 154 134 133 131 131 132 129 122 119 114 114 115 111 110 113 118 124 117 110 109 102 111 120 117 122
166 187 182 207 172 175 182 193 210 218 29 132 146 185 205 210 98 136 99 236 6 125 172 195 219 184 191 198 207 219 227 229 234 219 195 202 193 186 183 181 168 157 141 170 163 164 144 137 134 127 126 124 131 146 152 150 144 146 142 154 157 129 124 121 122 119 118 116 117 116 112 108 105 104 107 113 111 109 115 110 105 103 109 102 106 106
172 203 185 194 186 187 196 210 220 135 165 178 176 181 190 214 214 155 173 182 159 243 182 188 204 199 194 196 207 212 222 226 228 211 192 206 197 182 180 184 178 177 180 172 170 160 148 154 148 130 115 113 121 134 146 149 140 143 143 164 137 135 127 122 116 113 112 109 107 104 103 101 104 107 107 113 116 114 110 107 111 103 92 102 101 105
193 205 54 32 236 251 269 249 249 277 292 274 260 253 190 199 215 87 146 159 208 195 187 179 202 194 203 197 195 217 215 224 226 224 212 203 195 192 173 172 176 153 134 123 131 151 140 125 123 127 126 108 104 103 99 110 134 137 152 138 127 125 119 116 114 111 111 107 105 109 109 102 95 98 112 111 107 108 116 121 117 104 101 109 125 140
100 177 197 208 168 169 241 240 240 241 237 279 262 290 304 248 208 147 97 121 163 151 197 289 247 215 198 187 192 205 218 221 222 229 201 183 181 180 178 177 176 169 162 165 167 145 135 136 132 133 129 116 92 90 86 92 83 107 121 118 121 116 115 114 115 115 112 110 110 111 115 119 117 109 99 105 116 123 133 134 136 132 134 147 151 165
245 161 185 215 194 192 233 232 231 238 227 228 225 236 257 284 299 81 180 179 187 193 186 195 141 200 181 199 211 208 224 221 216 227 182 191 193 186 181 177 170 162 164 144 148 142 131 137 140 138 131 123 121 108 98 90 89 95 103 110 115 118 114 113 119 120 120 120 120 122 125 120 128 128 127 125 124 124 123 135 150 154 168 174 184 187
154 135 203 189 218 238 263 276 274 252 236 237 246 288 15 35 121 66 265 246 283 263 254 221 175 188 188 215 187 197 226 250 215 201 195 199 193 188 188 177 171 162 149 147 153 147 146 142 136 135 127 126 127 115 105 98 89 83 95 111 117 118 114 114 113 114 115 117 115 123 123 123 129 131 133 135 121 127 146 155 163 170 198 210 185 185
138 186 188 186 210 230 230 237 212 228 245 238 208 182 212 208 171 202 210 228 231 236 229 212 236 237 187 195 173 170 200 228 225 183 194 195 194 183 159 151 148 133 120 116 120 119 115 124 129 128 122 120 119 111 104 91 75 61 60 79 108 117 120 124 120 118 118 117 117 122 120 120 120 122 131 141 147 138 127 162 156 163 170 221 203 191
190 193 178 194 197 226 230 238 175 215 252 216 181 205 200 183 183 206 224 229 237 232 229 222 238 262 265 260 210 185 206 211 218 177 174 184 193 177 165 153 144 137 131 137 120 112 115 119 117 114 111 110 106 99 94 83 66 57 38 34 54 112 125 126 120 117 117 116 119 128 127 126 128 131 125 129 134 136 145 170 280 202 194 194 195 161